Weather History for KAOO - October, 2014

Change the Weather History Date:

Friday, October 10, 2014

  Actual Average Record
Temperature  
Mean Temperature 50 °F 53 °F  
Max Temperature 57 °F 63 °F 84 °F (1949)
Min Temperature 43 °F 42 °F 29 °F (1972)
Degree Days  
Heating Degree Days 15 12  
Month to date heating degree days 98 111  
Since 1 July heating degree days 256 282  
Cooling Degree Days 0 0  
Month to date cooling degree days 0 0  
Year to date cooling degree days 519 522  
Moisture  
Dew Point 47 °F    
Average Humidity 83    
Maximum Humidity 93    
Minimum Humidity 72    
Precipitation  
Precipitation 0.06 in 0.09 in 0.67 in (1999)
Month to date precipitation 0.89 0.85  
Year to date precipitation 30.27 25.23  
Sea Level Pressure  
Sea Level Pressure 30.11 in    
Wind  
Wind Speed 1 mph (ESE)    
Max Wind Speed 7 mph    
Max Gust Speed 9 mph    
Visibility 9 miles    
Events Rain    
T = Trace of Precipitation, MM = Missing Value Source: NWS Daily Summary

Daily Weather History Graph

Daily Weather History Graph

Search for Another Location

Airport or City:

Trip Planner

Search our weather history database for the weather conditions in past years. The results will help you decide how hot, cold, wet, or windy it might be!

Date:

Astronomy

Oct. 10, 2014 Rise Set
Actual Time 7:18 AM EDT 6:41 PM EDT
Civil Twilight 6:51 AM EDT 7:08 PM EDT
Nautical Twilight 6:20 AM EDT 7:39 PM EDT
Astronomical Twilight 5:48 AM EDT 8:11 PM EDT
Moon 8:19 PM EDT (10/10) 9:38 AM EDT (10/10)
Length of Visible Light 12h 16m
Length of Day
11h 22m
Waning Gibbous, 94% of the Moon is Illuminated
Oct 10
Waning Gibbous
Oct 15
Last Quarter
Oct 23
New
Oct 30
First Quarter
Nov 6
Full

Hourly Weather History & Observations

Time (EDT) Temp. Windchill Dew Point Humidity Pressure Visibility Wind Dir Wind Speed Gust Speed Precip Events Conditions
12:53 AM 48.0 °F - 44.1 °F 86% 30.11 in 10.0 mi WSW 5.8 mph - N/A   Clear
1:53 AM 48.0 °F - 44.1 °F 86% 30.12 in 10.0 mi SW 4.6 mph - N/A   Clear
2:53 AM 46.0 °F - 43.0 °F 89% 30.11 in 10.0 mi Calm Calm - N/A   Clear
3:53 AM 45.0 °F 43.5 °F 43.0 °F 93% 30.10 in 10.0 mi South 3.5 mph - N/A   Clear
4:53 AM 46.0 °F - 44.1 °F 93% 30.12 in 10.0 mi Calm Calm - N/A   Mostly Cloudy
5:53 AM 46.0 °F - 45.0 °F 96% 30.12 in 9.0 mi Calm Calm - N/A   Overcast
6:53 AM 46.9 °F - 45.0 °F 93% 30.12 in 8.0 mi Calm Calm - N/A   Overcast
7:53 AM 48.0 °F - 46.0 °F 93% 30.13 in 6.0 mi Calm Calm - N/A   Overcast
8:53 AM 50.0 °F - 46.0 °F 86% 30.13 in 9.0 mi Calm Calm - N/A   Mostly Cloudy
9:53 AM 50.0 °F - 46.9 °F 89% 30.14 in 10.0 mi East 3.5 mph - N/A   Overcast
10:53 AM 52.0 °F - 46.0 °F 80% 30.14 in 10.0 mi Calm Calm - N/A   Overcast
11:53 AM 53.1 °F - 46.0 °F 77% 30.13 in 10.0 mi Calm Calm - N/A   Overcast
12:53 PM 54.0 °F - 46.9 °F 77% 30.12 in 10.0 mi ESE 4.6 mph - N/A   Overcast
1:53 PM 55.0 °F - 46.9 °F 74% 30.10 in 10.0 mi Variable 3.5 mph - N/A   Overcast
2:53 PM 55.9 °F - 48.0 °F 75% 30.08 in 10.0 mi East 3.5 mph - N/A   Overcast
3:53 PM 55.9 °F - 48.0 °F 75% 30.09 in 10.0 mi Calm Calm - N/A   Overcast
4:53 PM 55.9 °F - 48.0 °F 75% 30.07 in 10.0 mi NE 4.6 mph - N/A   Overcast
5:53 PM 54.0 °F - 48.9 °F 83% 30.07 in 10.0 mi NNE 3.5 mph - N/A   Overcast
6:53 PM 53.1 °F - 48.0 °F 83% 30.09 in 10.0 mi Calm Calm - N/A   Mostly Cloudy
7:53 PM 51.1 °F - 48.9 °F 92% 30.09 in 9.0 mi Calm Calm - N/A   Clear
8:53 PM 51.1 °F - 48.9 °F 92% 30.10 in 9.0 mi Calm Calm - N/A   Overcast
9:53 PM 51.1 °F - 48.9 °F 92% 30.09 in 8.0 mi Calm Calm - 0.00 in Rain Light Rain
10:53 PM 51.1 °F - 48.9 °F 92% 30.09 in 6.0 mi Calm Calm - 0.00 in Rain Light Rain
11:53 PM 50.0 °F - 50.0 °F 100% 30.08 in 3.0 mi Calm Calm - 0.02 in Rain Light Rain